Time,TemperatureF,DewpointF,PressureIn,WindDirection,WindDirectionDegrees,WindSpeedMPH,WindSpeedGustMPH,Humidity,HourlyPrecipIn,Conditions,Clouds,dailyrainin,SoftwareType,DateUTC
2013-07-11 00:06:00,73.2,73.0,29.76,NNW,336,0.0,1.0,99,0.00,,,0.00,weatherlink.com 1.10,2013-07-11 04:06:00,
2013-07-11 00:21:00,73.2,73.0,29.76,NNW,330,0.0,1.0,99,0.00,,,0.00,weatherlink.com 1.10,2013-07-11 04:21:00,
2013-07-11 00:36:00,73.1,73.0,29.76,NNW,331,0.0,0.0,99,0.00,,,0.00,weatherlink.com 1.10,2013-07-11 04:36:00,
2013-07-11 00:51:00,73.1,73.0,29.76,NNW,331,0.0,0.0,99,0.00,,,0.00,weatherlink.com 1.10,2013-07-11 04:51:00,
2013-07-11 01:06:00,73.2,73.0,29.76,NNW,331,0.0,0.0,99,0.00,,,0.00,weatherlink.com 1.10,2013-07-11 05:06:00,
2013-07-11 01:21:00,73.1,73.0,29.75,NNW,331,0.0,1.0,99,0.00,,,0.00,weatherlink.com 1.10,2013-07-11 05:21:00,
2013-07-11 01:36:00,73.0,73.0,29.75,NNW,331,0.0,1.0,99,0.00,,,0.00,weatherlink.com 1.10,2013-07-11 05:36:00,
2013-07-11 01:51:00,72.9,73.0,29.75,NNW,331,0.0,0.0,99,0.00,,,0.00,weatherlink.com 1.10,2013-07-11 05:51:00,
2013-07-11 02:06:00,72.7,72.0,29.74,NNW,330,0.0,0.0,99,0.00,,,0.00,weatherlink.com 1.10,2013-07-11 06:06:00,
2013-07-11 02:21:00,72.4,72.0,29.74,NNW,331,0.0,0.0,99,0.00,,,0.00,weatherlink.com 1.10,2013-07-11 06:21:00,
2013-07-11 02:36:00,72.2,72.0,29.73,NNW,331,1.0,1.0,99,0.00,,,0.00,weatherlink.com 1.10,2013-07-11 06:36:00,
2013-07-11 02:51:00,72.1,72.0,29.74,NW,308,0.0,0.0,100,0.00,,,0.00,weatherlink.com 1.10,2013-07-11 06:51:00,
2013-07-11 03:06:00,72.0,72.0,29.74,NW,308,0.0,0.0,100,0.00,,,0.00,weatherlink.com 1.10,2013-07-11 07:06:00,
2013-07-11 03:21:00,71.8,72.0,29.74,NW,308,0.0,0.0,100,0.00,,,0.00,weatherlink.com 1.10,2013-07-11 07:21:00,
2013-07-11 03:36:00,71.7,72.0,29.75,NW,308,0.0,0.0,100,0.00,,,0.00,weatherlink.com 1.10,2013-07-11 07:36:00,
2013-07-11 03:51:00,71.7,72.0,29.75,NW,320,0.0,2.0,100,0.00,,,0.00,weatherlink.com 1.10,2013-07-11 07:51:00,
2013-07-11 04:06:00,71.5,72.0,29.75,NW,319,0.0,0.0,100,0.00,,,0.00,weatherlink.com 1.10,2013-07-11 08:06:00,
2013-07-11 04:21:00,71.4,71.0,29.75,NW,320,0.0,1.0,100,0.00,,,0.00,weatherlink.com 1.10,2013-07-11 08:21:00,
2013-07-11 04:36:00,71.2,71.0,29.75,NW,319,0.0,0.0,100,0.00,,,0.00,weatherlink.com 1.10,2013-07-11 08:36:00,
2013-07-11 04:51:00,71.0,71.0,29.76,NW,320,0.0,0.0,100,0.00,,,0.00,weatherlink.com 1.10,2013-07-11 08:51:00,
2013-07-11 05:06:00,70.7,71.0,29.76,NW,319,0.0,0.0,100,0.00,,,0.00,weatherlink.com 1.10,2013-07-11 09:06:00,
2013-07-11 05:36:00,70.7,71.0,29.77,NW,320,0.0,0.0,100,0.00,,,0.00,weatherlink.com 1.10,2013-07-11 09:36:00,
2013-07-11 05:51:00,70.9,71.0,29.77,NW,320,0.0,0.0,100,0.00,,,0.00,weatherlink.com 1.10,2013-07-11 09:51:00,
2013-07-11 06:06:00,71.0,71.0,29.77,NW,320,0.0,0.0,100,0.00,,,0.00,weatherlink.com 1.10,2013-07-11 10:06:00,
2013-07-11 06:21:00,71.1,71.0,29.77,NW,319,0.0,0.0,100,0.00,,,0.00,weatherlink.com 1.10,2013-07-11 10:21:00,
2013-07-11 06:36:00,71.2,71.0,29.77,NW,319,0.0,0.0,100,0.00,,,0.00,weatherlink.com 1.10,2013-07-11 10:36:00,
2013-07-11 06:51:00,71.5,72.0,29.77,NW,320,0.0,0.0,100,0.00,,,0.00,weatherlink.com 1.10,2013-07-11 10:51:00,
2013-07-11 07:06:00,71.7,72.0,29.77,NW,320,0.0,0.0,100,0.00,,,0.00,weatherlink.com 1.10,2013-07-11 11:06:00,
2013-07-11 07:21:00,71.8,72.0,29.77,NW,320,0.0,0.0,100,0.00,,,0.00,weatherlink.com 1.10,2013-07-11 11:21:00,
2013-07-11 07:36:00,72.1,72.0,29.78,NW,319,0.0,0.0,100,0.00,,,0.00,weatherlink.com 1.10,2013-07-11 11:36:00,
2013-07-11 07:51:00,72.2,72.0,29.77,NW,319,0.0,0.0,100,0.00,,,0.00,weatherlink.com 1.10,2013-07-11 11:51:00,
2013-07-11 08:07:00,72.5,73.0,29.77,NW,319,0.0,0.0,100,0.00,,,0.00,weatherlink.com 1.10,2013-07-11 12:07:00,
2013-07-11 08:21:00,72.8,73.0,29.77,NW,319,0.0,1.0,100,0.00,,,0.00,weatherlink.com 1.10,2013-07-11 12:21:00,
2013-07-11 08:36:00,72.8,73.0,29.78,NW,317,0.0,2.0,100,0.00,,,0.00,weatherlink.com 1.10,2013-07-11 12:36:00,
2013-07-11 08:51:00,73.5,74.0,29.78,NW,317,0.0,1.0,100,0.00,,,0.00,weatherlink.com 1.10,2013-07-11 12:51:00,
2013-07-11 09:37:00,72.7,72.0,29.80,NW,320,2.0,5.0,97,0.06,,,0.06,weatherlink.com 1.10,2013-07-11 13:37:00,
2013-07-11 09:52:00,71.2,70.0,29.80,NW,320,0.0,1.0,96,0.08,,,0.08,weatherlink.com 1.10,2013-07-11 13:52:00,
2013-07-11 10:07:00,70.6,70.0,29.80,NW,320,0.0,0.0,97,0.09,,,0.09,weatherlink.com 1.10,2013-07-11 14:07:00,
2013-07-11 11:07:00,72.7,72.0,29.81,NW,320,0.0,0.0,99,0.00,,,0.09,weatherlink.com 1.10,2013-07-11 15:07:00,
2013-07-11 11:22:00,73.7,73.0,29.81,NW,306,0.0,0.0,98,0.00,,,0.09,weatherlink.com 1.10,2013-07-11 15:22:00,
2013-07-11 11:37:00,74.3,74.0,29.81,NW,306,0.0,0.0,98,0.00,,,0.09,weatherlink.com 1.10,2013-07-11 15:37:00,
2013-07-11 12:07:00,75.2,75.0,29.81,NW,306,0.0,0.0,98,0.00,,,0.09,weatherlink.com 1.10,2013-07-11 16:07:00,
2013-07-11 12:22:00,76.5,76.0,29.81,NW,307,0.0,0.0,97,0.00,,,0.09,weatherlink.com 1.10,2013-07-11 16:22:00,
2013-07-11 12:37:00,76.9,75.0,29.81,WNW,291,0.0,3.0,95,0.00,,,0.09,weatherlink.com 1.10,2013-07-11 16:37:00,
2013-07-11 12:52:00,77.3,76.0,29.80,NW,317,3.0,3.0,94,0.00,,,0.09,weatherlink.com 1.10,2013-07-11 16:52:00,
2013-07-11 13:07:00,77.8,75.0,29.80,NW,312,3.0,3.0,91,0.00,,,0.09,weatherlink.com 1.10,2013-07-11 17:07:00,
2013-07-11 13:22:00,78.3,74.0,29.80,NW,307,0.0,2.0,87,0.00,,,0.09,weatherlink.com 1.10,2013-07-11 17:22:00,
2013-07-11 13:37:00,79.4,75.0,29.80,NW,307,0.0,1.0,87,0.00,,,0.09,weatherlink.com 1.10,2013-07-11 17:37:00,
2013-07-11 13:52:00,80.2,74.0,29.79,WNW,303,0.0,1.0,82,0.00,,,0.09,weatherlink.com 1.10,2013-07-11 17:52:00,
2013-07-11 14:22:00,80.3,73.0,29.79,WNW,303,0.0,0.0,79,0.00,,,0.09,weatherlink.com 1.10,2013-07-11 18:22:00,
2013-07-11 14:37:00,80.8,75.0,29.79,WNW,303,0.0,0.0,81,0.00,,,0.09,weatherlink.com 1.10,2013-07-11 18:37:00,
2013-07-11 14:52:00,80.9,75.0,29.79,WNW,303,0.0,0.0,83,0.00,,,0.09,weatherlink.com 1.10,2013-07-11 18:52:00,
2013-07-11 15:07:00,81.1,74.0,29.79,WNW,303,0.0,0.0,78,0.00,,,0.09,weatherlink.com 1.10,2013-07-11 19:07:00,
2013-07-11 15:22:00,81.3,75.0,29.79,NW,317,0.0,1.0,81,0.00,,,0.09,weatherlink.com 1.10,2013-07-11 19:22:00,
2013-07-11 15:37:00,81.7,75.0,29.79,NW,317,0.0,1.0,81,0.00,,,0.09,weatherlink.com 1.10,2013-07-11 19:37:00,
2013-07-11 15:52:00,81.7,76.0,29.79,NNW,338,0.0,2.0,82,0.00,,,0.09,weatherlink.com 1.10,2013-07-11 19:52:00,
2013-07-11 16:07:00,82.0,75.0,29.79,NNW,338,0.0,1.0,80,0.00,,,0.09,weatherlink.com 1.10,2013-07-11 20:07:00,
2013-07-11 16:37:00,82.5,75.0,29.80,West,268,0.0,1.0,79,0.00,,,0.09,weatherlink.com 1.10,2013-07-11 20:37:00,
2013-07-11 16:52:00,82.2,75.0,29.80,WNW,288,0.0,0.0,78,0.00,,,0.09,weatherlink.com 1.10,2013-07-11 20:52:00,
2013-07-11 17:07:00,82.3,75.0,29.80,WNW,288,0.0,1.0,78,0.00,,,0.09,weatherlink.com 1.10,2013-07-11 21:07:00,
2013-07-11 17:22:00,77.1,70.0,29.81,WNW,294,0.0,7.0,79,0.00,,,0.09,weatherlink.com 1.10,2013-07-11 21:22:00,
2013-07-11 17:37:00,74.6,70.0,29.81,East,101,3.0,4.0,86,0.00,,,0.09,weatherlink.com 1.10,2013-07-11 21:37:00,
2013-07-11 17:52:00,72.4,69.0,29.82,SE,146,0.0,4.0,90,0.02,,,0.11,weatherlink.com 1.10,2013-07-11 21:52:00,
2013-07-11 18:07:00,72.6,70.0,29.82,SE,144,0.0,0.0,92,0.02,,,0.11,weatherlink.com 1.10,2013-07-11 22:07:00,
2013-07-11 18:22:00,73.5,71.0,29.82,North,356,1.0,2.0,90,0.02,,,0.11,weatherlink.com 1.10,2013-07-11 22:22:00,
2013-07-11 18:37:00,73.6,72.0,29.83,NNW,342,0.0,0.0,94,0.02,,,0.11,weatherlink.com 1.10,2013-07-11 22:37:00,
2013-07-11 19:08:00,73.3,71.0,29.83,North,9,0.0,0.0,93,0.00,,,0.11,weatherlink.com 1.10,2013-07-11 23:08:00,
2013-07-11 19:53:00,73.4,72.0,29.85,North,9,0.0,0.0,94,0.00,,,0.11,weatherlink.com 1.10,2013-07-11 23:53:00,
2013-07-11 20:08:00,73.1,72.0,29.85,NNW,343,0.0,1.0,96,0.00,,,0.11,weatherlink.com 1.10,2013-07-12 00:08:00,
2013-07-11 20:23:00,72.9,72.0,29.86,NNW,343,0.0,0.0,96,0.00,,,0.11,weatherlink.com 1.10,2013-07-12 00:23:00,
2013-07-11 20:53:00,72.3,71.0,29.86,NNW,343,0.0,0.0,97,0.00,,,0.11,weatherlink.com 1.10,2013-07-12 00:53:00,
2013-07-11 21:08:00,72.0,71.0,29.87,NW,312,0.0,1.0,97,0.00,,,0.11,weatherlink.com 1.10,2013-07-12 01:08:00,
2013-07-11 21:23:00,71.9,71.0,29.87,NW,312,0.0,1.0,98,0.00,,,0.11,weatherlink.com 1.10,2013-07-12 01:23:00,
2013-07-11 21:38:00,71.7,71.0,29.88,NW,312,0.0,0.0,98,0.00,,,0.11,weatherlink.com 1.10,2013-07-12 01:38:00,
2013-07-11 21:53:00,71.6,71.0,29.88,NW,313,0.0,0.0,98,0.00,,,0.11,weatherlink.com 1.10,2013-07-12 01:53:00,
2013-07-11 22:08:00,71.6,71.0,29.89,NW,312,0.0,1.0,98,0.00,,,0.11,weatherlink.com 1.10,2013-07-12 02:08:00,
2013-07-11 22:23:00,71.7,71.0,29.89,NW,313,0.0,1.0,96,0.00,,,0.11,weatherlink.com 1.10,2013-07-12 02:23:00,
2013-07-11 22:38:00,71.3,70.0,29.89,WNW,302,1.0,2.0,94,0.00,,,0.11,weatherlink.com 1.10,2013-07-12 02:38:00,
2013-07-11 22:53:00,71.0,69.0,29.89,WNW,299,0.0,2.0,92,0.00,,,0.11,weatherlink.com 1.10,2013-07-12 02:53:00,
2013-07-11 23:08:00,70.6,68.0,29.90,West,279,0.0,3.0,92,0.00,,,0.11,weatherlink.com 1.10,2013-07-12 03:08:00,
2013-07-11 23:23:00,70.1,68.0,29.90,WNW,297,0.0,1.0,93,0.00,,,0.11,weatherlink.com 1.10,2013-07-12 03:23:00,
2013-07-11 23:38:00,69.4,68.0,29.90,WNW,297,0.0,0.0,95,0.00,,,0.11,weatherlink.com 1.10,2013-07-12 03:38:00,
2013-07-11 23:53:00,68.9,68.0,29.91,WNW,297,0.0,1.0,96,0.00,,,0.11,weatherlink.com 1.10,2013-07-12 03:53:00,